FW6868 Weather Reports


time (UTC)temp
F
wind
direction
speed
knots
gust
knots
rain 1hr
in
rain 24hr
in
rain mn
in
humidity
%
barometer
mb
20220629044607 67 215 3.5 5.2 0.00 0.00 0.00 87 1015.0
20220629043107 67 221 1.7 5.2 0.00 0.00 0.00 87 1015.1
20220629041600 67 211 1.7 4.3 0.00 0.00 0.00 87 1015.0
20220629040107 68 183 2.6 5.2 0.00 0.00 0.00 87 1015.0
20220629034558 68 235 2.6 4.3 0.00 0.00 0.00 87 1015.0
20220629033109 69 235 0.9 2.6 0.00 0.00 0.00 87 1015.1
20220629031604 69 283 1.7 2.6 0.00 0.00 0.00 87 1015.2
20220629030112 69 309 0.9 2.6 0.00 0.00 0.00 86 1015.3
20220629024559 69 309 0.0 2.6 0.00 0.00 0.00 86 1015.4
20220629023108 70 0 0.0 3.5 0.00 0.00 0.00 85 1015.4
20220629021610 70 0 0.0 1.7 0.00 0.00 0.00 84 1015.3
20220629020108 71 0 0.0 4.3 0.00 0.00 0.00 84 1015.6
20220629014614 71 348 0.9 2.6 0.00 0.00 0.00 84 1015.6
20220629013120 71 315 1.7 4.3 0.00 0.00 0.00 83 1015.8
20220629011607 71 336 1.7 7.8 0.00 0.00 0.00 83 1015.9
20220629010106 71 334 2.6 7.8 0.00 0.00 0.00 83 1016.0
20220629004602 71 281 1.7 5.2 0.00 0.00 0.00 82 1016.1
20220629003107 72 335 2.6 7.0 0.00 0.00 0.00 82 1016.2
20220629001610 72 289 3.5 8.7 0.00 0.00 0.00 82 1016.3
20220629000114 72 318 6.1 11.3 0.00 0.00 0.00 82 1016.1
20220628234609 72 331 5.2 12.2 0.00 0.00 0.00 82 1016.2
20220628233102 73 336 7.8 13.0 0.00 0.00 0.00 82 1016.0
20220628231610 73 342 2.6 5.2 0.00 0.00 0.00 80 1015.9
20220628230103 74 317 1.7 7.0 0.00 0.00 0.00 79 1015.9
20220628224647 74 347 4.3 7.8 0.00 0.00 0.00 79 1015.8
20220628223103 73 321 0.0 4.3 0.00 0.00 0.00 78 1015.8
20220628221612 74 317 0.0 3.5 0.00 0.00 0.00 78 1015.6
20220628220110 75 343 3.5 7.8 0.00 0.00 0.00 79 1015.6
20220628214609 76 350 5.2 11.3 0.00 0.00 0.00 76 1015.6
20220628213112 77 329 1.7 7.0 0.00 0.00 0.00 61 1015.6
20220628211605 78 167 0.9 5.2 0.00 0.00 0.00 51 1015.3
20220628210102 78 206 3.5 6.1 0.00 0.00 0.00 53 1015.1
20220628204608 77 175 1.7 4.3 0.00 0.00 0.00 56 1015.0
20220628203104 78 143 3.5 6.1 0.00 0.00 0.00 63 1014.8
20220628201617 79 158 2.6 7.0 0.00 0.00 0.00 52 1014.5
20220628200107 79 164 3.5 5.2 0.00 0.00 0.00 52 1014.3
20220628194604 80 173 3.5 8.7 0.00 0.00 0.00 51 1014.3
20220628193106 80 169 5.2 8.7 0.00 0.00 0.00 51 1014.1
20220628191607 80 185 4.3 8.7 0.00 0.00 0.00 52 1013.9
20220628190107 80 147 6.1 11.3 0.00 0.00 0.00 57 1013.7
20220628184605 79 133 7.8 12.2 0.00 0.00 0.00 70 1013.9
20220628183110 79 115 8.7 13.9 0.00 0.00 0.00 69 1013.8
20220628181608 78 125 9.6 14.8 0.00 0.00 0.00 73 1013.8
20220628180114 78 113 10.4 13.0 0.00 0.00 0.00 75 1013.7
20220628174611 78 117 10.4 14.8 0.00 0.00 0.00 75 1013.8
20220628173109 78 117 11.3 15.6 0.00 0.00 0.00 73 1014.0
20220628171608 79 140 8.7 13.0 0.00 0.00 0.00 73 1014.1
20220628170114 78 153 11.3 16.5 0.00 0.00 0.00 75 1014.1
20220628164607 77 113 13.0 16.5 0.00 0.00 0.00 75 1014.3
20220628163059 78 107 13.0 15.6 0.00 0.00 0.00 73 1014.4
20220628161601 77 104 13.0 15.6 0.00 0.00 0.00 75 1014.7
20220628160101 77 112 13.0 17.4 0.00 0.00 0.00 75 1015.1
20220628154605 77 111 13.9 16.5 0.00 0.00 0.00 76 1015.1
20220628153104 75 105 13.0 16.5 0.00 0.00 0.00 80 1015.5
20220628151607 74 104 14.8 19.1 0.00 0.00 0.00 82 1015.7
20220628150105 73 99 17.4 20.9 0.00 0.00 0.00 83 1016.1
20220628144557 73 105 17.4 21.7 0.00 0.00 0.00 82 1016.1
20220628143057 73 98 15.6 20.0 0.00 0.00 0.00 81 1016.4
20220628141608 73 103 13.9 18.2 0.00 0.00 0.00 81 1016.6
20220628140110 72 96 13.0 16.5 0.00 0.00 0.00 81 1016.8
20220628134602 72 109 13.0 15.6 0.00 0.00 0.00 80 1017.1
20220628133057 72 102 13.0 15.6 0.00 0.00 0.00 78 1017.0
20220628131600 72 106 11.3 13.9 0.00 0.00 0.00 79 1017.2
20220628130114 72 94 10.4 13.0 0.00 0.00 0.00 79 1017.2
20220628124555 72 93 9.6 11.3 0.00 0.00 0.00 79 1017.4
20220628123104 72 72 8.7 10.4 0.00 0.00 0.00 78 1017.5
20220628121558 72 99 8.7 11.3 0.00 0.00 0.00 77 1017.8
20220628120107 72 78 8.7 11.3 0.00 0.00 0.00 78 1018.1
20220628114603 72 110 8.7 12.2 0.00 0.00 0.00 77 1018.3
20220628113107 72 105 9.6 13.0 0.00 0.00 0.00 76 1018.4
20220628111600 72 90 8.7 11.3 0.00 0.00 0.00 77 1018.6
20220628110102 72 94 7.8 11.3 0.00 0.00 0.00 76 1018.5
20220628104602 72 96 8.7 11.3 0.00 0.00 0.00 76 1018.5
20220628103105 73 76 7.8 10.4 0.00 0.00 0.00 76 1018.5
20220628101607 73 67 7.8 9.6 0.00 0.00 0.00 76 1018.7
20220628100109 73 82 7.0 9.6 0.00 0.00 0.00 76 1018.7
20220628094609 73 64 6.1 8.7 0.00 0.00 0.00 76 1018.7
20220628093107 73 78 6.1 9.6 0.00 0.00 0.00 75 1018.8
20220628091607 73 76 6.1 8.7 0.00 0.00 0.00 75 1018.8
20220628090103 73 81 4.3 7.0 0.00 0.00 0.00 76 1019.0
20220628084606 73 68 2.6 5.2 0.00 0.00 0.00 76 1019.0
20220628083106 73 62 2.6 5.2 0.00 0.00 0.00 78 1018.8
20220628081608 72 61 2.6 4.3 0.00 0.00 0.00 78 1019.0
20220628080103 71 54 2.6 4.3 0.00 0.00 0.00 79 1018.9
20220628074605 70 46 2.6 4.3 0.00 0.00 0.00 81 1018.9
20220628073057 70 44 2.6 3.5 0.00 0.00 0.00 81 1018.9
20220628071601 71 31 1.7 3.5 0.00 0.00 0.00 82 1018.9
20220628070122 69 31 0.0 0.9 0.00 0.00 0.00 83 1018.8
20220628064558 68 0 0.0 1.7 0.00 0.00 0.00 84 1019.0
20220628063108 68 229 0.9 2.6 0.00 0.00 0.00 85 1018.9
20220628061608 67 211 0.0 3.5 0.00 0.00 0.00 87 1018.9
20220628060107 66 0 0.0 4.3 0.00 0.00 0.00 86 1018.9
20220628054610 65 195 2.6 6.1 0.00 0.00 0.00 87 1018.7
20220628053058 64 197 1.7 5.2 0.00 0.00 0.00 87 1018.4
20220628051607 64 197 2.6 4.3 0.00 0.00 0.00 87 1018.5
20220628050106 64 211 3.5 5.2 0.00 0.00 0.00 87 1018.5